GFSMW_700_spd_276.txt.gz
Wind_Speed
11 11 15 18 16 16 13 7 9 4 2 1 2 9 8 10 10 11 9 6 6 4 3 3 5 5 5 5 6 8 8 8 6 8 7 5 6 6 8 7 9 15 11
15 10 8 12 16 12 9 9 11 9 7 5 4 6 6 8 8 8 5 6 3 2 2 5 5 4 5 7 7 8 8 8 7 7 8 8 8 6 7 8 10 6 5
7 7 8 8 9 11 8 8 10 10 10 11 10 8 8 9 6 5 6 5 1 1 0 3 5 5 7 7 9 12 11 9 9 10 10 8 7 6 6 7 6 3 8
7 7 9 6 3 4 7 6 8 9 14 13 13 9 8 7 7 8 6 4 4 3 5 7 8 8 9 9 9 10 10 10 8 7 8 8 7 7 6 9 11 8 9
19 12 10 8 5 4 9 10 7 13 15 15 15 11 8 9 10 7 5 4 6 9 10 11 12 12 13 12 10 10 10 10 8 9 8 10 11 16 17 10 12 12 12
14 12 12 11 8 7 8 10 9 12 13 16 12 10 10 7 7 4 5 7 8 10 11 12 11 10 10 11 12 12 10 11 9 10 11 10 13 15 13 13 14 13 10
22 19 15 11 10 10 10 8 11 12 12 14 13 13 11 8 6 5 4 7 9 11 12 10 8 7 7 8 10 10 9 11 10 10 10 15 18 17 14 14 14 11 9
14 19 12 9 9 6 6 8 11 15 14 16 17 15 12 9 6 2 3 6 7 6 5 6 4 4 4 2 5 8 9 9 12 13 14 16 20 18 14 13 13 9 10
10 16 15 8 6 6 8 7 10 15 16 17 18 15 11 9 6 2 1 2 4 6 6 6 4 4 4 3 4 5 7 9 11 12 14 15 15 16 17 16 12 9 8
13 13 12 8 8 9 10 10 10 13 15 18 17 15 11 9 7 5 6 8 10 11 12 12 11 9 6 4 4 5 7 8 9 10 10 11 14 15 16 18 18 15 10
6 6 10 10 10 11 12 11 9 14 15 15 15 14 11 10 8 7 6 5 5 7 8 9 9 9 8 9 7 6 7 8 9 10 12 13 14 16 17 16 16 16 14
3 8 5 8 11 11 13 13 14 13 14 15 15 15 14 13 11 10 8 5 1 3 5 6 7 8 8 7 8 8 9 10 11 11 13 15 15 17 17 17 16 15 15
10 13 13 9 10 10 14 15 16 13 13 13 13 19 17 16 14 12 10 7 5 3 3 6 8 8 9 9 9 10 12 12 12 12 13 15 16 17 17 16 16 15 16
7 6 8 8 8 9 13 16 17 17 16 14 13 14 17 17 16 13 12 11 9 7 7 8 11 12 11 10 11 12 14 15 14 14 14 15 16 16 17 17 17 17 17
10 6 6 10 11 10 14 18 20 20 18 17 17 16 18 18 19 17 17 15 13 11 11 10 12 13 12 12 15 16 16 15 15 16 17 16 15 15 16 17 17 17 17
15 10 9 13 19 17 15 17 21 22 21 21 20 21 19 16 20 22 22 20 16 15 14 14 15 15 13 15 17 18 18 18 17 16 18 19 17 16 16 17 17 17 17
14 14 14 16 22 22 19 20 17 26 25 25 25 25 20 19 21 23 23 22 20 19 18 17 17 17 16 20 20 19 19 20 20 19 17 19 18 16 16 17 18 17 17
20 25 24 24 23 25 24 23 24 25 26 28 29 28 25 22 22 23 22 21 20 20 18 18 19 17 18 18 19 20 20 19 19 18 16 18 18 18 17 17 17 17 17
14 17 23 31 37 36 37 39 36 37 38 32 37 32 29 22 21 23 22 21 21 18 16 16 16 18 19 20 19 19 19 18 18 17 17 16 16 17 16 17 18 17 17
16 16 17 23 30 43 49 48 37 44 48 72 36 43 35 28 23 22 22 22 17 15 14 14 17 19 20 22 21 18 17 16 16 16 15 14 14 16 17 16 16 17 17
26 24 22 22 22 31 34 39 14 39 53 48 48 29 35 26 23 21 15 16 15 14 13 15 17 19 20 18 17 16 15 14 14 15 15 15 15 14 15 15 15 16 17
26 26 21 22 23 23 27 36 28 27 38 27 6 30 26 21 14 13 14 13 13 13 15 18 17 16 15 14 13 13 14 13 13 12 14 15 15 16 15 15 15 16 16
22 25 23 23 24 23 22 11 13 15 16 28 14 15 16 13 9 12 12 11 12 15 16 15 13 12 11 13 14 13 11 9 11 13 13 13 14 15 15 15 15 16 16
22 21 17 16 19 18 16 17 15 5 7 7 15 19 21 15 11 9 9 11 13 12 11 11 11 12 12 13 13 12 11 8 10 11 11 13 13 14 14 14 15 16 16
15 15 17 19 19 14 20 15 7 9 13 16 16 12 10 9 7 8 9 9 8 10 13 15 13 12 13 14 15 14 13 14 15 14 14 14 13 13 14 15 16 16 16
16 20 16 20 14 18 5 5 5 12 14 15 13 10 8 5 6 6 6 7 10 12 12 13 14 14 13 14 16 17 15 15 18 20 20 18 17 17 18 18 17 17 16

GFSMW_700_spd_279.txt.gz
Wind_Speed
11 14 14 16 13 12 11 10 5 4 3 2 1 5 4 5 6 5 5 5 3 2 2 2 3 6 4 4 6 10 8 7 8 7 12 8 6 7 8 9 6 9 12
11 16 17 17 15 14 10 8 8 8 9 6 3 6 5 10 10 8 7 8 6 4 5 9 7 7 8 8 9 8 7 8 9 9 9 10 8 9 9 8 7 7 7
8 9 12 17 19 17 12 9 6 7 11 12 9 7 7 10 11 9 7 11 7 2 3 5 7 8 10 11 10 10 12 13 12 11 12 11 10 10 8 8 8 7 9
9 7 3 1 4 11 14 12 7 8 13 14 12 10 8 10 9 6 6 8 6 5 6 7 9 11 11 12 13 10 11 13 12 11 11 9 8 7 9 13 12 11 11
14 10 2 3 3 7 8 10 12 9 13 13 13 12 11 11 10 8 7 5 5 8 11 14 15 17 16 16 15 13 11 9 9 9 9 10 10 9 14 14 12 12 11
14 10 12 7 5 3 7 8 15 11 13 12 12 10 10 11 13 10 8 7 9 12 14 16 17 14 14 15 14 13 11 10 10 10 11 11 9 10 13 11 12 13 15
12 16 12 10 4 5 3 7 13 10 11 13 14 12 13 11 10 8 8 8 11 14 14 13 10 9 9 11 11 11 11 11 11 12 11 11 13 16 15 12 12 13 17
7 8 8 7 7 4 3 6 10 13 10 13 15 13 12 11 9 8 8 9 10 9 7 6 6 5 5 5 6 8 10 10 9 11 13 14 14 16 13 10 10 10 15
9 5 8 8 5 3 3 3 8 10 12 14 15 14 13 10 8 7 6 5 4 4 5 5 5 5 3 3 5 6 7 9 10 11 13 14 14 13 11 11 11 11 13
4 3 1 9 6 4 5 7 7 9 14 16 17 17 14 12 9 6 3 3 4 4 5 6 7 8 8 6 5 5 6 7 8 9 11 12 14 13 13 14 13 12 14
3 3 3 5 6 8 9 10 8 9 12 15 17 16 15 12 11 10 9 7 3 1 2 4 6 6 6 6 6 7 7 8 9 10 12 13 15 16 16 16 16 16 15
4 3 1 3 5 8 12 12 12 9 12 14 16 17 18 16 15 13 12 10 8 5 3 3 5 6 7 7 7 7 9 10 10 11 12 12 15 16 16 16 16 16 16
6 9 10 7 7 7 12 16 16 14 14 16 16 16 19 20 17 16 16 14 12 10 8 7 7 7 9 10 10 10 12 13 13 14 14 14 14 14 15 15 15 16 16
4 6 4 1 5 8 11 15 16 18 20 19 19 19 18 22 22 21 19 18 15 13 12 10 10 10 11 12 11 13 15 14 15 15 16 16 16 14 15 15 15 16 16
5 2 1 7 8 6 8 11 16 20 22 23 24 22 21 24 26 25 23 21 19 17 16 15 13 13 13 13 13 15 17 16 16 17 17 17 16 16 16 16 16 16 16
14 8 11 13 16 16 13 12 18 23 26 28 28 26 25 26 27 27 26 25 22 20 19 17 17 17 18 17 16 18 18 18 17 17 18 17 16 15 15 15 15 16 16
22 16 18 20 19 23 24 22 20 22 30 33 36 33 32 31 28 26 27 28 26 24 23 22 21 19 19 18 20 21 20 19 19 18 18 18 17 17 16 16 16 17 17
27 28 25 25 26 30 33 33 34 33 37 35 41 40 36 35 34 30 30 28 29 27 26 24 22 21 20 19 20 20 22 23 20 18 16 17 17 17 16 15 17 17 16
10 15 22 26 29 34 38 40 43 46 43 33 48 37 37 42 39 36 31 34 30 29 28 25 23 21 21 20 20 20 22 22 21 19 16 16 16 17 17 17 16 16 16
16 19 20 22 25 28 31 31 39 51 45 49 39 46 45 53 41 48 53 34 32 29 28 24 22 20 20 21 21 21 20 19 18 18 17 16 16 17 18 17 17 17 17
21 24 23 23 21 22 24 25 26 27 31 35 31 25 36 59 64 63 51 34 31 27 25 22 20 19 20 20 17 16 14 15 15 16 16 16 16 17 17 17 17 17 18
20 22 24 24 21 17 19 22 25 30 31 27 25 23 22 17 25 53 67 27 17 20 20 19 19 18 16 14 14 13 14 14 15 15 14 16 16 16 17 17 17 18 18
17 19 20 18 15 10 8 15 20 20 23 21 11 10 7 7 13 23 19 17 16 18 17 17 15 14 13 12 13 14 14 14 15 16 15 16 16 16 17 17 18 18 18
14 14 14 14 14 12 11 12 19 18 17 7 1 2 4 9 9 11 13 12 13 14 14 11 11 12 14 13 14 15 16 16 15 15 15 17 17 18 19 18 18 17 18
11 11 12 13 11 12 17 14 11 11 9 9 7 4 2 8 8 7 7 9 9 9 9 10 12 14 14 14 14 14 14 15 16 16 15 17 18 19 21 22 20 20 19
9 10 9 13 13 16 18 13 11 5 8 15 9 4 7 8 7 4 3 4 6 8 9 12 14 13 13 14 17 17 17 18 19 20 19 19 19 19 20 22 22 23 23

GFSMW_700_spd_285.txt.gz
Wind_Speed
6 6 7 6 6 6 4 4 5 2 3 5 5 3 2 2 3 4 4 4 5 5 2 5 6 5 5 6 6 9 9 10 14 11 9 7 7 8 8 9 8 9 11
4 3 2 3 5 5 7 5 6 3 1 2 3 2 2 1 2 2 2 2 3 2 4 10 10 8 7 8 9 10 10 10 10 9 10 8 8 9 10 10 9 9 10
3 2 3 2 6 6 6 7 7 8 4 2 2 1 1 4 3 3 3 5 6 7 7 5 4 5 7 9 10 12 12 12 13 13 12 11 10 11 9 9 8 14 14
5 4 1 3 4 3 10 10 9 7 6 4 4 4 5 5 5 5 4 2 3 5 8 10 10 9 11 13 15 15 14 13 13 13 13 12 11 9 8 10 13 16 11
3 7 5 2 3 10 13 13 13 11 7 5 6 7 7 8 7 5 4 4 8 8 10 12 14 15 17 18 17 16 17 16 14 11 10 11 11 11 11 10 13 13 10
4 2 11 5 3 2 9 13 14 16 6 6 8 9 9 9 10 9 7 6 8 11 13 16 17 16 15 14 13 11 12 12 12 11 12 13 13 13 14 13 16 15 14
5 6 2 6 3 2 3 6 9 12 9 5 7 9 8 9 10 11 8 7 11 13 15 14 13 11 10 10 10 10 9 9 8 9 11 12 12 12 13 16 18 16 15
4 3 3 6 6 6 3 5 4 10 9 4 5 9 10 11 11 10 8 9 11 11 10 9 8 7 6 6 6 5 4 6 8 9 9 11 13 15 14 15 17 15 14
3 4 2 4 3 5 4 4 4 6 6 3 5 9 11 11 11 10 9 8 8 4 3 3 5 6 6 5 4 4 4 5 7 9 11 12 14 16 16 15 14 14 15
4 4 6 4 3 0 3 3 5 4 6 6 6 8 10 12 11 11 11 9 7 5 4 3 3 2 2 3 3 4 4 4 5 6 8 10 11 13 14 15 15 16 16
4 4 4 6 6 5 3 2 4 4 5 6 8 9 11 14 14 14 13 11 11 10 7 6 5 6 6 6 5 5 5 6 7 8 9 9 10 11 13 14 15 16 17
3 6 7 5 7 7 4 2 5 6 5 8 9 11 14 16 17 16 15 14 15 14 12 10 9 8 8 7 7 8 8 9 10 11 11 12 12 12 13 14 14 14 15
6 6 7 5 6 7 7 3 4 7 10 9 11 13 14 16 18 19 19 18 19 19 18 16 14 13 12 10 9 10 11 12 13 13 13 12 13 14 16 16 16 16 16
13 8 4 4 2 1 3 3 2 6 12 14 15 15 17 19 20 22 23 22 22 24 23 22 20 18 16 13 12 13 13 14 15 16 16 16 15 16 17 17 17 18 18
13 14 10 9 8 10 11 12 12 12 14 16 19 20 23 24 26 26 27 27 26 26 27 27 25 22 20 18 17 16 16 17 17 17 18 19 20 20 19 18 17 17 17
11 15 17 16 14 15 13 15 18 20 23 24 24 25 27 30 32 31 30 30 30 31 30 30 29 27 25 22 21 20 20 20 20 20 19 21 22 22 22 21 19 17 17
13 18 20 24 25 27 26 27 29 25 25 31 31 33 34 35 39 29 24 30 29 31 32 33 32 32 29 26 24 23 23 22 22 23 22 23 24 25 23 21 21 19 18
17 19 20 21 22 23 26 31 31 27 26 26 30 36 39 37 36 42 41 28 33 37 41 39 38 35 34 29 26 25 24 23 23 23 25 26 25 23 22 20 18 18 17
16 19 22 24 25 28 31 34 35 35 33 29 25 28 30 35 37 39 38 31 35 43 44 49 43 39 36 33 28 25 24 23 22 23 25 25 23 21 19 19 18 17 18
22 24 26 28 30 29 25 23 22 24 26 24 21 23 28 32 36 37 38 40 38 41 43 49 44 39 32 33 30 26 22 22 21 23 22 21 20 19 18 18 18 17 18
20 22 23 22 20 20 18 18 18 19 20 22 24 26 30 32 34 36 38 39 39 40 42 36 43 41 44 29 27 20 20 21 19 19 18 19 18 18 17 18 18 17 17
18 18 18 18 19 20 18 18 18 18 20 21 25 28 31 30 29 31 37 37 35 35 33 36 32 33 28 19 21 19 17 19 17 16 18 19 19 17 17 17 17 17 17
16 17 17 19 18 16 17 16 18 19 20 22 22 22 18 16 17 24 25 6 8 16 32 30 26 16 32 23 18 18 16 13 14 15 17 18 18 18 17 18 18 19 18
16 16 16 15 15 17 17 20 20 18 16 16 15 12 11 13 14 21 27 21 10 21 33 14 9 21 21 14 6 9 12 12 13 16 18 17 18 20 19 19 20 20 20
13 14 15 15 15 15 17 17 16 12 15 11 7 7 10 7 9 15 17 17 14 7 3 8 9 3 7 4 4 8 10 12 14 16 17 17 19 21 22 22 23 23 22
9 12 14 14 15 15 13 12 13 11 15 15 15 7 3 4 3 9 14 13 12 10 8 7 5 2 6 8 9 11 13 15 17 18 19 20 22 25 25 25 27 26 24

GFSMW_700_spd_291.txt.gz
Wind_Speed
10 10 12 11 7 6 5 3 3 4 3 3 4 5 5 3 3 2 2 1 1 2 1 2 5 4 3 5 6 7 8 8 9 8 9 6 10 10 9 8 8 9 9
11 13 13 12 12 9 9 5 4 3 3 2 4 6 5 5 4 4 4 2 2 2 2 3 7 9 7 8 9 9 10 7 9 9 8 6 10 12 7 10 10 9 10
13 13 14 14 14 11 9 9 9 7 6 5 6 5 4 4 5 4 3 3 5 6 4 5 3 4 7 8 8 9 10 10 11 9 8 10 8 7 9 9 9 10 13
13 13 13 13 14 15 14 11 11 9 5 5 8 6 6 6 5 3 5 5 6 6 4 5 6 7 10 12 13 14 15 14 15 13 11 9 10 11 10 9 9 6 16
10 11 12 12 12 14 15 13 14 11 10 4 6 8 8 7 6 5 5 4 4 4 6 8 10 12 15 16 17 18 17 15 14 12 9 10 9 8 9 5 9 4 10
7 9 12 14 12 11 9 10 11 14 14 13 9 9 9 10 9 8 6 6 6 5 7 10 14 15 15 15 14 13 13 12 10 11 9 10 8 7 7 5 7 5 11
4 7 10 14 14 11 6 7 7 10 14 9 9 10 12 14 11 9 10 7 8 7 15 11 11 11 10 9 9 8 9 9 9 9 9 11 12 15 15 13 8 11 10
2 3 6 10 12 10 8 6 6 6 9 13 11 10 11 12 10 9 10 9 9 10 9 7 7 7 8 7 6 5 4 4 7 10 10 11 12 10 11 13 13 12 8
5 5 4 3 1 6 5 7 6 6 6 9 11 11 12 13 12 11 10 10 10 10 6 6 6 6 6 6 7 6 4 2 4 6 8 11 11 10 12 13 14 11 10
5 3 2 6 5 4 3 4 5 6 5 5 7 9 12 12 13 13 13 14 12 12 11 9 7 6 5 5 5 5 5 4 3 4 4 6 7 9 9 11 12 11 12
5 6 4 5 7 6 5 4 5 5 5 5 6 7 10 12 14 15 15 16 14 16 14 14 12 10 9 8 7 7 7 7 8 8 8 9 10 10 10 10 11 12 13
4 1 5 6 8 8 7 8 7 7 8 8 7 9 11 13 16 17 19 19 19 19 19 18 17 16 15 13 11 12 11 11 11 12 12 13 12 12 11 12 11 13 14
6 6 4 3 3 3 4 6 5 6 9 9 11 12 13 15 17 20 20 24 24 23 23 23 22 22 20 19 18 16 15 14 13 13 13 15 16 15 16 15 15 16 15
7 6 6 7 10 11 11 11 10 10 10 14 15 17 17 20 21 23 26 25 27 25 25 26 26 26 26 25 23 22 20 18 17 16 16 17 17 18 17 17 17 18 19
4 5 7 16 16 17 16 16 17 18 19 21 22 25 24 26 26 28 29 29 29 27 27 26 28 29 28 28 29 27 25 24 23 21 19 20 19 21 20 20 19 19 19
8 9 9 14 18 17 17 17 18 18 21 25 28 29 32 30 29 29 31 29 27 25 28 39 42 41 32 30 30 31 32 29 28 26 24 22 21 22 22 22 22 22 21
7 9 11 11 12 13 15 18 19 20 21 22 24 26 29 31 33 31 31 35 35 31 39 41 35 30 38 39 38 34 33 33 32 30 27 24 25 21 21 25 25 25 22
12 14 18 20 22 23 24 26 26 25 23 21 21 23 24 24 27 30 33 36 40 39 38 38 33 31 34 38 39 36 34 31 34 34 31 26 26 24 20 24 24 23 19
18 21 25 27 29 31 28 24 22 20 19 20 21 22 23 22 24 25 27 30 34 36 36 35 34 32 35 36 35 32 28 29 36 36 37 33 25 26 22 21 21 20 17
20 24 27 26 23 21 19 18 17 16 17 18 19 20 22 23 22 23 24 25 28 29 31 32 32 33 36 38 34 34 32 32 33 37 36 38 31 21 19 19 19 17 16
23 20 19 17 15 14 13 13 14 15 16 18 20 22 22 20 20 20 20 19 23 27 31 30 30 29 34 35 35 36 35 36 38 40 42 44 32 16 14 13 14 14 14
18 18 15 14 13 10 11 11 14 15 17 19 20 16 16 15 15 18 21 24 24 22 14 11 13 19 20 20 25 29 31 37 37 40 41 38 33 20 13 11 11 12 14
15 14 13 11 10 10 10 13 15 14 17 19 17 15 14 13 16 17 24 24 17 14 14 9 16 19 24 19 18 18 22 28 30 31 37 35 35 20 9 12 13 14 15
15 13 11 11 9 9 12 14 12 16 17 15 14 14 13 14 13 15 20 17 15 13 13 11 6 6 5 7 7 12 17 20 23 27 26 18 8 5 9 14 15 16 16
14 13 12 9 10 13 15 14 13 17 15 14 13 11 11 12 11 14 14 14 14 15 15 14 14 11 10 9 6 8 9 6 4 1 4 5 6 8 12 18 20 20 22
14 11 10 11 13 15 14 12 12 14 13 10 10 10 9 9 12 13 12 14 14 14 15 14 14 13 10 10 9 10 8 7 9 11 13 17 17 18 21 21 23 24 27